When you browse on this site, cookies collect data to enhance your experience and personalize the content and advertising you see.
Visit our Privacy Policy to learn more. By continuing to use the site, you agree to this use of cookies and data.
  • en Suisse
  • Liste des pays
  • À 7 jours
  • Température de l'eau
  • Carte satellitaire
  • Carte météo
  • Widgets météo
  • user-avatar
    Se connecter

    Météo par heure à Monheim

    Ce jour, 23 Juillet, Mardi

    Heure Température Précipitation Vent Pression Humidité
    00:00 +21°C° 0 mm 0 m/s 763 mmHg 65%
    01:00 +21°C° 0 mm 0 m/s 763 mmHg 67%
    02:00 +22°C° 0 mm 1 m/s 763 mmHg 68%
    03:00 +22°C° 0 mm 1 m/s 763 mmHg 70%
    04:00 +23°C° 0 mm 1 m/s 763 mmHg 67%
    05:00 +24°C° 0 mm 1 m/s 763 mmHg 64%
    06:00 +25°C° 0 mm 1 m/s 763 mmHg 62%
    07:00 +26°C° 0 mm 1 m/s 763 mmHg 56%
    08:00 +28°C° 0 mm 1 m/s 762 mmHg 49%
    09:00 +30°C° 0 mm 2 m/s 762 mmHg 43%
    10:00 +32°C° 0 mm 2 m/s 762 mmHg 40%
    11:00 +34°C° 0 mm 2 m/s 762 mmHg 36%
    12:00 +35°C° 0 mm 2 m/s 761 mmHg 33%
    13:00 +36°C° 0 mm 2 m/s 761 mmHg 32%
    14:00 +36°C° 0 mm 2 m/s 761 mmHg 31%
    15:00 +36°C° 0 mm 1 m/s 760 mmHg 30%
    16:00 +35°C° 0 mm 1 m/s 760 mmHg 34%
    17:00 +34°C° 0 mm 1 m/s 760 mmHg 37%
    18:00 +33°C° 0 mm 1 m/s 759 mmHg 41%
    19:00 +31°C° 0 mm 1 m/s 760 mmHg 46%
    20:00 +30°C° 0 mm 2 m/s 760 mmHg 50%
    21:00 +28°C° 0 mm 2 m/s 760 mmHg 55%
    22:00 +27°C° 0 mm 2 m/s 760 mmHg 56%
    23:00 +27°C° 0 mm 2 m/s 759 mmHg 58%

    Demain, 24 Juillet, Mercredi

    Heure Température Précipitation Vent Pression Humidité
    00:00 +26°C° 0 mm 2 m/s 759 mmHg 60%
    01:00 +26°C° 0 mm 2 m/s 759 mmHg 62%
    02:00 +25°C° 0 mm 3 m/s 758 mmHg 64%
    03:00 +25°C° 0 mm 3 m/s 758 mmHg 66%
    04:00 +25°C° 0 mm 3 m/s 758 mmHg 65%
    05:00 +26°C° 0 mm 3 m/s 758 mmHg 64%
    06:00 +27°C° 0 mm 3 m/s 758 mmHg 62%
    07:00 +29°C° 0 mm 3 m/s 758 mmHg 56%
    08:00 +31°C° 0 mm 3 m/s 758 mmHg 51%
    09:00 +33°C° 0 mm 4 m/s 758 mmHg 45%
    10:00 +35°C° 0 mm 3 m/s 757 mmHg 41%
    11:00 +36°C° 0 mm 3 m/s 757 mmHg 36%
    12:00 +38°C° 0 mm 3 m/s 757 mmHg 32%
    13:00 +38°C° 0 mm 2 m/s 757 mmHg 30%
    14:00 +39°C° 0 mm 2 m/s 757 mmHg 27%
    15:00 +40°C° 0 mm 1 m/s 757 mmHg 25%
    16:00 +39°C° 0 mm 1 m/s 757 mmHg 29%
    17:00 +36°C° 0 mm 1 m/s 757 mmHg 34%
    18:00 +35°C° 0 mm 1 m/s 756 mmHg 39%
    19:00 +34°C° 0 mm 1 m/s 757 mmHg 42%
    20:00 +32°C° 0 mm 1 m/s 757 mmHg 44%
    21:00 +30°C° 0 mm 1 m/s 758 mmHg 47%
    22:00 +29°C° 0 mm 1 m/s 758 mmHg 50%
    23:00 +29°C° 0 mm 1 m/s 758 mmHg 53%

    Après-demain, 25 Juillet, Jeudi

    Heure Température Précipitation Vent Pression Humidité
    00:00 +28°C° 0 mm 1 m/s 758 mmHg 56%
    01:00 +27°C° 0 mm 1 m/s 758 mmHg 58%
    02:00 +27°C° 0 mm 1 m/s 758 mmHg 60%
    03:00 +26°C° 0 mm 1 m/s 758 mmHg 62%
    04:00 +27°C° 0 mm 1 m/s 758 mmHg 61%
    05:00 +27°C° 0 mm 1 m/s 758 mmHg 60%
    06:00 +28°C° 0 mm 2 m/s 758 mmHg 59%
    07:00 +30°C° 0 mm 2 m/s 758 mmHg 53%
    08:00 +32°C° 0 mm 2 m/s 758 mmHg 48%
    09:00 +35°C° 0 mm 2 m/s 758 mmHg 42%
    10:00 +37°C° 0 mm 2 m/s 758 mmHg 37%
    11:00 +39°C° 0 mm 2 m/s 758 mmHg 32%
    12:00 +40°C° 0 mm 2 m/s 757 mmHg 27%
    13:00 +41°C° 0 mm 2 m/s 757 mmHg 26%
    14:00 +41°C° 0 mm 2 m/s 757 mmHg 25%
    15:00 +41°C° 0 mm 2 m/s 757 mmHg 24%
    16:00 +40°C° 0 mm 2 m/s 757 mmHg 28%
    17:00 +39°C° 0 mm 3 m/s 756 mmHg 32%
    18:00 +38°C° 0 mm 3 m/s 756 mmHg 36%
    19:00 +36°C° 0 mm 3 m/s 757 mmHg 39%
    20:00 +34°C° 0 mm 4 m/s 757 mmHg 42%
    21:00 +32°C° 0 mm 4 m/s 757 mmHg 44%
    22:00 +32°C° 0 mm 4 m/s 757 mmHg 46%
    23:00 +30°C° 0 mm 4 m/s 757 mmHg 47%

    26 Juillet, Vendredi

    Heure Température Précipitation Vent Pression Humidité
    00:00 +29°C° 0 mm 3 m/s 757 mmHg 49%
    01:00 +28°C° 0 mm 3 m/s 756 mmHg 49%
    02:00 +28°C° 0 mm 3 m/s 756 mmHg 50%
    03:00 +27°C° 0 mm 3 m/s 756 mmHg 50%
    04:00 +27°C° 0 mm 3 m/s 756 mmHg 49%
    05:00 +28°C° 0 mm 3 m/s 756 mmHg 48%
    06:00 +28°C° 0 mm 3 m/s 755 mmHg 47%
    07:00 +30°C° 0 mm 3 m/s 755 mmHg 45%
    08:00 +33°C° 0 mm 3 m/s 755 mmHg 43%
    09:00 +34°C° 0 mm 3 m/s 755 mmHg 41%
    10:00 +36°C° 0 mm 4 m/s 755 mmHg 37%
    11:00 +37°C° 0 mm 4 m/s 754 mmHg 34%
    12:00 +40°C° 0 mm 4 m/s 754 mmHg 30%
    13:00 +40°C° 0 mm 4 m/s 753 mmHg 29%
    14:00 +40°C° 0 mm 4 m/s 753 mmHg 28%
    15:00 +40°C° 0 mm 4 m/s 752 mmHg 27%
    16:00 +38°C° 0 mm 4 m/s 752 mmHg 30%
    17:00 +36°C° 0 mm 5 m/s 752 mmHg 33%
    18:00 +35°C° 0 mm 5 m/s 752 mmHg 36%
    19:00 +34°C° 0 mm 5 m/s 752 mmHg 39%
    20:00 +32°C° 0 mm 5 m/s 752 mmHg 42%
    21:00 +29°C° 0 mm 5 m/s 752 mmHg 46%
    22:00 +29°C° 0 mm 5 m/s 752 mmHg 46%
    23:00 +28°C° 0 mm 5 m/s 752 mmHg 46%

    27 Juillet, Samedi

    Heure Température Précipitation Vent Pression Humidité
    00:00 +27°C° 0 mm 4 m/s 752 mmHg 46%
    01:00 +26°C° 0 mm 4 m/s 752 mmHg 48%
    02:00 +25°C° 0 mm 3 m/s 751 mmHg 49%
    03:00 +25°C° 0 mm 3 m/s 751 mmHg 51%
    04:00 +25°C° 0 mm 3 m/s 751 mmHg 51%
    05:00 +25°C° 0 mm 4 m/s 750 mmHg 52%
    06:00 +26°C° 0 mm 4 m/s 750 mmHg 52%
    07:00 +27°C° 0 mm 4 m/s 750 mmHg 49%
    08:00 +29°C° 0 mm 5 m/s 750 mmHg 47%
    09:00 +30°C° 0 mm 5 m/s 750 mmHg 44%
    10:00 +32°C° 0 mm 5 m/s 750 mmHg 41%
    11:00 +34°C° 0 mm 4 m/s 750 mmHg 39%
    12:00 +35°C° 0 mm 4 m/s 750 mmHg 36%
    13:00 +35°C° 0 mm 4 m/s 749 mmHg 36%
    14:00 +35°C° 0 mm 4 m/s 749 mmHg 35%
    15:00 +35°C° 0 mm 4 m/s 749 mmHg 35%
    16:00 +34°C° 0 mm 4 m/s 749 mmHg 37%
    17:00 +33°C° 0 mm 4 m/s 749 mmHg 39%
    18:00 +32°C° 0 mm 4 m/s 749 mmHg 41%
    19:00 +30°C° 0 mm 4 m/s 749 mmHg 46%
    20:00 +28°C° 0 mm 4 m/s 749 mmHg 50%
    21:00 +27°C° 0 mm 3 m/s 750 mmHg 54%
    22:00 +26°C° 0 mm 3 m/s 750 mmHg 54%
    23:00 +26°C° 0 mm 3 m/s 750 mmHg 54%

    28 Juillet, Dimanche

    Heure Température Précipitation Vent Pression Humidité
    00:00 +26°C° 0 mm 3 m/s 750 mmHg 54%
    01:00 +25°C° 0 mm 3 m/s 750 mmHg 55%
    02:00 +24°C° 0 mm 2 m/s 750 mmHg 57%
    03:00 +24°C° 0 mm 2 m/s 750 mmHg 59%
    04:00 +24°C° 0 mm 2 m/s 750 mmHg 58%
    05:00 +25°C° 0 mm 2 m/s 751 mmHg 58%
    06:00 +25°C° 0 mm 2 m/s 751 mmHg 57%
    07:00 +27°C° 0 mm 3 m/s 751 mmHg 53%
    08:00 +28°C° 0 mm 3 m/s 751 mmHg 48%
    09:00 +30°C° 0 mm 3 m/s 752 mmHg 43%
    10:00 +31°C° 0 mm 3 m/s 752 mmHg 39%
    11:00 +33°C° 0 mm 3 m/s 752 mmHg 35%
    12:00 +34°C° 0 mm 3 m/s 752 mmHg 32%
    13:00 +34°C° 0 mm 3 m/s 752 mmHg 32%
    14:00 +34°C° 0 mm 3 m/s 752 mmHg 32%
    15:00 +34°C° 0 mm 3 m/s 752 mmHg 31%
    16:00 +34°C° 0 mm 3 m/s 752 mmHg 35%
    17:00 +32°C° 0 mm 2 m/s 752 mmHg 39%
    18:00 +31°C° 0 mm 2 m/s 752 mmHg 42%
    19:00 +29°C° 0 mm 2 m/s 753 mmHg 49%
    20:00 +28°C° 0 mm 2 m/s 754 mmHg 56%
    21:00 +26°C° 0 mm 2 m/s 754 mmHg 62%
    22:00 +25°C° 0 mm 2 m/s 754 mmHg 67%
    23:00 +25°C° 0 mm 1 m/s 755 mmHg 71%
    Voir plus